C/2017 F1 ( Lemmon )

Japanese version
Home page
Updated on July 6, 2017

---------------------------------------------------------------------

* Profile

Discovery Date March 20, 2017
Magnitude 21.7 mag
Discoverer G. J. Leonard (Mount Lemmon)

* Pictures

* Orbital Elements

Epoch 2017 Nov. 23.0 TT = JDT 2458080.5
T 2017 Dec. 8.87472 TT                                  MPCW
q   4.4629640            (2000.0)            P               Q
z  -0.0000051      Peri.   66.04210     -0.10121007     +0.97425528
 +/-0.0002161      Node   158.65652     +0.58478859     -0.10555710
e   1.0000228      Incl.  146.39220     +0.80484708     +0.19920931
From 64 observations 2017 Mar. 20-May 22, mean residual 0".5.

* Magnitudes Graph

        m1 = 10.5 + 5 log d + 10.0 log r

---------------------------------------------------------------------

The orbital elements are published on M.P.E.C. 2017-L52.
The magnitudes graphs are made with Comet for Windows.

---------------------------------------------------------------------

Copyright(C) Seiichi Yoshida (comet@aerith.net). All rights reserved.